| time (UTC) | temp F | wind direction | speed MPH | gust MPH | rain 1hr in | rain 24hr in | rain mn in | humidity % | barometer mb |
| 20260505180025 | 77 | 182 | 2.0 | 8.0 | 0.00 | 0.00 | 0.00 | 47 | 1007.9 |
| 20260505175010 | 76 | 292 | 4.0 | 9.0 | 0.00 | 0.00 | 0.00 | 50 | 1007.8 |
| 20260505173923 | 76 | 287 | 3.0 | 8.0 | 0.00 | 0.00 | 0.00 | 51 | 1008.1 |
| 20260505172929 | 76 | 268 | 3.0 | 9.0 | 0.00 | 0.00 | 0.00 | 51 | 1008.2 |
| 20260505171928 | 77 | 300 | 1.0 | 7.0 | 0.00 | 0.00 | 0.00 | 52 | 1008.0 |
| 20260505170914 | 78 | 285 | 4.0 | 9.0 | 0.00 | 0.00 | 0.00 | 49 | 1008.2 |
| 20260505165933 | 77 | 306 | 3.0 | 8.0 | 0.00 | 0.00 | 0.00 | 49 | 1008.2 |
| 20260505164919 | 78 | 301 | 2.0 | 3.0 | 0.00 | 0.00 | 0.00 | 48 | 1008.4 |
| 20260505163905 | 78 | 261 | 2.0 | 6.0 | 0.00 | 0.00 | 0.00 | 48 | 1008.4 |
| 20260505162924 | 77 | 302 | 3.0 | 5.0 | 0.00 | 0.00 | 0.00 | 47 | 1008.7 |
| 20260505161909 | 76 | 296 | 0.0 | 2.0 | 0.00 | 0.00 | 0.00 | 51 | 1008.9 |
| 20260505160928 | 75 | 250 | 2.0 | 9.0 | 0.00 | 0.00 | 0.00 | 51 | 1009.2 |
| 20260505152937 | 71 | 297 | 1.0 | 3.0 | 0.00 | 0.00 | 0.00 | 57 | 1009.2 |
| 20260505151923 | 71 | 258 | 3.0 | 5.0 | 0.00 | 0.00 | 0.00 | 57 | 1009.2 |
| 20260505150909 | 69 | 305 | 0.0 | 1.0 | 0.00 | 0.00 | 0.00 | 60 | 1009.2 |
| 20260505124943 | 62 | 302 | 4.0 | 6.0 | 0.00 | 0.00 | 0.00 | 70 | 1009.8 |
| 20260505123928 | 60 | 287 | 1.0 | 6.0 | 0.00 | 0.00 | 0.00 | 73 | 1009.9 |
| 20260505122914 | 59 | 307 | 0.0 | 2.0 | 0.00 | 0.00 | 0.00 | 75 | 1009.9 |
| 20260505121933 | 58 | 312 | 1.0 | 2.0 | 0.00 | 0.00 | 0.00 | 78 | 1009.8 |
| 20260505120918 | 57 | 277 | 2.0 | 3.0 | 0.00 | 0.00 | 0.00 | 79 | 1009.7 |
| 20260505115956 | 56 | 298 | 2.0 | 3.0 | 0.00 | 0.00 | 0.00 | 81 | 1009.8 |
| 20260505114922 | 55 | 316 | 1.0 | 3.0 | 0.00 | 0.00 | 0.00 | 82 | 1009.8 |
| 20260505113941 | 55 | 301 | 3.0 | 5.0 | 0.00 | 0.00 | 0.00 | 83 | 1009.7 |
| 20260505112946 | 54 | 290 | 3.0 | 6.0 | 0.00 | 0.00 | 0.00 | 84 | 1009.9 |
| 20260505111944 | 53 | 299 | 2.0 | 5.0 | 0.00 | 0.00 | 0.00 | 84 | 1009.8 |
| 20260505110949 | 53 | 313 | 2.0 | 5.0 | 0.00 | 0.00 | 0.00 | 86 | 1009.7 |
| 20260505101951 | 51 | 289 | 2.0 | 3.0 | 0.00 | 0.00 | 0.00 | 89 | 1009.6 |
| 20260505100935 | 51 | 296 | 1.0 | 2.0 | 0.00 | 0.00 | 0.00 | 89 | 1009.6 |
| 20260505095920 | 50 | 257 | 1.0 | 5.0 | 0.00 | 0.00 | 0.00 | 90 | 1009.6 |
| 20260505094936 | 49 | 296 | 1.0 | 2.0 | 0.00 | 0.00 | 0.00 | 90 | 1009.6 |
| 20260505093945 | 49 | 327 | 0.0 | 1.0 | 0.00 | 0.00 | 0.00 | 90 | 1009.9 |
| 20260505092949 | 49 | 0.0 | 0.0 | 0.00 | 0.00 | 0.00 | 90 | 1010.0 | |
| 20260505092014 | 49 | 0.0 | 0.0 | 0.00 | 0.00 | 0.00 | 89 | 1009.8 | |
| 20260505090952 | 50 | 0.0 | 0.0 | 0.00 | 0.00 | 0.00 | 88 | 1009.8 | |
| 20260505085956 | 50 | 0.0 | 1.0 | 0.00 | 0.00 | 0.00 | 88 | 1009.8 | |
| 20260505084928 | 50 | 303 | 1.0 | 3.0 | 0.00 | 0.00 | 0.00 | 87 | 1009.9 |
| 20260505083937 | 50 | 299 | 1.0 | 2.0 | 0.00 | 0.00 | 0.00 | 87 | 1010.0 |
| 20260505082948 | 50 | 301 | 1.0 | 2.0 | 0.00 | 0.00 | 0.00 | 87 | 1009.9 |
| 20260505081955 | 50 | 316 | 0.0 | 1.0 | 0.00 | 0.00 | 0.00 | 87 | 1009.9 |
| 20260505080930 | 51 | 319 | 0.0 | 1.0 | 0.00 | 0.00 | 0.00 | 86 | 1009.8 |
| 20260505075936 | 51 | 306 | 0.0 | 1.0 | 0.00 | 0.00 | 0.00 | 86 | 1010.0 |
| 20260505074938 | 51 | 286 | 1.0 | 2.0 | 0.00 | 0.00 | 0.00 | 86 | 1010.1 |
| 20260505074004 | 51 | 312 | 1.0 | 2.0 | 0.00 | 0.00 | 0.00 | 86 | 1009.9 |
| 20260505072958 | 51 | 309 | 1.0 | 2.0 | 0.00 | 0.00 | 0.00 | 86 | 1010.1 |
| 20260505071936 | 51 | 303 | 1.0 | 1.0 | 0.00 | 0.00 | 0.00 | 86 | 1010.1 |
| 20260505070955 | 51 | 297 | 1.0 | 2.0 | 0.00 | 0.00 | 0.00 | 86 | 1010.0 |
| 20260505065940 | 51 | 317 | 1.0 | 2.0 | 0.00 | 0.00 | 0.00 | 85 | 1010.1 |
| 20260505064959 | 51 | 294 | 2.0 | 3.0 | 0.00 | 0.00 | 0.00 | 85 | 1010.1 |
| 20260505063945 | 51 | 302 | 1.0 | 3.0 | 0.00 | 0.00 | 0.00 | 84 | 1010.2 |
| 20260505062930 | 51 | 308 | 1.0 | 2.0 | 0.00 | 0.00 | 0.00 | 84 | 1010.1 |
| 20260505061949 | 51 | 301 | 2.0 | 5.0 | 0.00 | 0.00 | 0.00 | 84 | 1010.2 |
| 20260505060934 | 51 | 308 | 1.0 | 2.0 | 0.00 | 0.00 | 0.00 | 84 | 1010.2 |
| 20260505055953 | 51 | 300 | 1.0 | 2.0 | 0.00 | 0.00 | 0.00 | 83 | 1010.3 |
| 20260505054938 | 51 | 310 | 0.0 | 2.0 | 0.00 | 0.00 | 0.00 | 83 | 1010.3 |
| 20260505053957 | 51 | 302 | 1.0 | 3.0 | 0.00 | 0.00 | 0.00 | 82 | 1010.4 |
| 20260505052942 | 51 | 291 | 1.0 | 2.0 | 0.00 | 0.00 | 0.00 | 82 | 1010.4 |
| 20260505052001 | 51 | 307 | 0.0 | 1.0 | 0.00 | 0.00 | 0.00 | 81 | 1010.4 |
| 20260505050946 | 52 | 312 | 1.0 | 2.0 | 0.00 | 0.00 | 0.00 | 80 | 1010.2 |
| 20260505040957 | 53 | 275 | 1.0 | 2.0 | 0.00 | 0.00 | 0.00 | 76 | 1010.5 |
| 20260505040022 | 53 | 306 | 1.0 | 2.0 | 0.00 | 0.00 | 0.00 | 76 | 1010.5 |
| 20260505035001 | 53 | 304 | 1.0 | 2.0 | 0.00 | 0.00 | 0.00 | 75 | 1010.6 |
| 20260505033946 | 54 | 310 | 0.0 | 2.0 | 0.00 | 0.00 | 0.00 | 74 | 1010.4 |
| 20260505033005 | 54 | 304 | 1.0 | 3.0 | 0.00 | 0.00 | 0.00 | 73 | 1010.2 |
| 20260505032030 | 54 | 297 | 2.0 | 3.0 | 0.00 | 0.00 | 0.00 | 72 | 1010.3 |
| 20260505031008 | 54 | 279 | 1.0 | 2.0 | 0.00 | 0.00 | 0.00 | 71 | 1010.3 |
| 20260505025954 | 55 | 305 | 2.0 | 6.0 | 0.00 | 0.00 | 0.00 | 70 | 1010.5 |
| 20260505024940 | 55 | 304 | 1.0 | 2.0 | 0.00 | 0.00 | 0.00 | 69 | 1010.6 |
| 20260505023959 | 55 | 307 | 2.0 | 3.0 | 0.00 | 0.00 | 0.00 | 68 | 1010.5 |
| 20260505022944 | 55 | 269 | 1.0 | 2.0 | 0.00 | 0.00 | 0.00 | 67 | 1010.5 |
| 20260505022004 | 56 | 288 | 2.0 | 5.0 | 0.00 | 0.00 | 0.00 | 66 | 1010.4 |
| 20260505020949 | 56 | 305 | 1.0 | 3.0 | 0.00 | 0.00 | 0.00 | 65 | 1010.4 |
| 20260505020008 | 56 | 291 | 2.0 | 2.0 | 0.00 | 0.00 | 0.00 | 63 | 1010.4 |
| 20260505014952 | 57 | 299 | 1.0 | 5.0 | 0.00 | 0.00 | 0.00 | 62 | 1010.4 |
| 20260505014011 | 57 | 293 | 1.0 | 3.0 | 0.00 | 0.00 | 0.00 | 61 | 1010.3 |
| 20260505012957 | 57 | 304 | 1.0 | 2.0 | 0.00 | 0.00 | 0.00 | 59 | 1010.3 |
| 20260505011942 | 57 | 299 | 1.0 | 3.0 | 0.00 | 0.00 | 0.00 | 58 | 1010.0 |
| 20260505011001 | 58 | 294 | 1.0 | 2.0 | 0.00 | 0.00 | 0.00 | 57 | 1009.8 |
| 20260505005946 | 58 | 308 | 2.0 | 6.0 | 0.00 | 0.00 | 0.00 | 57 | 1009.5 |
| 20260505005005 | 59 | 286 | 2.0 | 5.0 | 0.00 | 0.00 | 0.00 | 56 | 1009.5 |
| 20260505003951 | 59 | 285 | 2.0 | 5.0 | 0.00 | 0.00 | 0.00 | 55 | 1009.2 |
| 20260505003009 | 59 | 290 | 2.0 | 2.0 | 0.00 | 0.00 | 0.00 | 55 | 1009.2 |
| 20260505001955 | 59 | 273 | 3.0 | 6.0 | 0.00 | 0.00 | 0.00 | 56 | 1008.8 |
| 20260505001012 | 59 | 313 | 2.0 | 5.0 | 0.00 | 0.00 | 0.00 | 55 | 1008.5 |
| 20260504235957 | 60 | 287 | 2.0 | 6.0 | 0.00 | 0.00 | 0.00 | 54 | 1008.4 |
| 20260504235036 | 61 | 284 | 3.0 | 7.0 | 0.00 | 0.00 | 0.00 | 52 | 1008.3 |
| 20260504234042 | 62 | 296 | 3.0 | 6.0 | 0.00 | 0.00 | 0.00 | 50 | 1008.0 |
| 20260504232948 | 63 | 283 | 3.0 | 9.0 | 0.00 | 0.00 | 0.00 | 46 | 1007.9 |
| 20260504232006 | 64 | 311 | 3.0 | 7.0 | 0.00 | 0.00 | 0.00 | 45 | 1007.6 |
| 20260504230951 | 64 | 285 | 4.0 | 8.0 | 0.00 | 0.00 | 0.00 | 45 | 1007.5 |
| 20260504230030 | 65 | 283 | 3.0 | 10.0 | 0.00 | 0.00 | 0.00 | 45 | 1007.3 |
| 20260504224955 | 65 | 280 | 3.0 | 7.0 | 0.00 | 0.00 | 0.00 | 45 | 1007.1 |
| 20260504224013 | 66 | 296 | 5.0 | 10.0 | 0.00 | 0.00 | 0.00 | 44 | 1006.9 |
| 20260504222959 | 66 | 268 | 6.0 | 10.0 | 0.00 | 0.00 | 0.00 | 43 | 1006.9 |
| 20260504222018 | 67 | 295 | 3.0 | 7.0 | 0.00 | 0.00 | 0.00 | 42 | 1006.9 |
| 20260504221004 | 67 | 243 | 4.0 | 6.0 | 0.00 | 0.00 | 0.00 | 42 | 1006.8 |
| 20260504220023 | 68 | 299 | 3.0 | 9.0 | 0.00 | 0.00 | 0.00 | 40 | 1006.7 |
| 20260504215008 | 68 | 251 | 4.0 | 8.0 | 0.00 | 0.00 | 0.00 | 39 | 1006.9 |
| 20260504213953 | 68 | 274 | 4.0 | 5.0 | 0.00 | 0.00 | 0.00 | 39 | 1006.8 |
| 20260504213011 | 69 | 281 | 4.0 | 8.0 | 0.00 | 0.00 | 0.00 | 37 | 1006.5 |
| 20260504212016 | 69 | 293 | 3.0 | 6.0 | 0.00 | 0.00 | 0.00 | 36 | 1006.6 |
| 20260504211030 | 70 | 262 | 4.0 | 6.0 | 0.00 | 0.00 | 0.00 | 33 | 1006.6 |
| 20260504205955 | 70 | 269 | 4.0 | 7.0 | 0.00 | 0.00 | 0.00 | 33 | 1006.4 |
| 20260504205013 | 70 | 263 | 2.0 | 6.0 | 0.00 | 0.00 | 0.00 | 33 | 1006.4 |
| 20260504203959 | 71 | 269 | 3.0 | 9.0 | 0.00 | 0.00 | 0.00 | 32 | 1006.6 |
| 20260504203017 | 70 | 295 | 3.0 | 7.0 | 0.00 | 0.00 | 0.00 | 33 | 1006.5 |
| 20260504202023 | 70 | 309 | 2.0 | 3.0 | 0.00 | 0.00 | 0.00 | 33 | 1006.4 |
| 20260504201022 | 71 | 289 | 4.0 | 6.0 | 0.00 | 0.00 | 0.00 | 31 | 1006.6 |
| 20260504200007 | 71 | 282 | 6.0 | 14.0 | 0.00 | 0.00 | 0.00 | 31 | 1006.4 |
| 20260504195026 | 70 | 249 | 4.0 | 9.0 | 0.00 | 0.00 | 0.00 | 31 | 1006.5 |
| 20260504194011 | 70 | 276 | 5.0 | 9.0 | 0.00 | 0.00 | 0.00 | 31 | 1006.5 |
| 20260504192956 | 70 | 284 | 4.0 | 7.0 | 0.00 | 0.00 | 0.00 | 32 | 1006.6 |
| 20260504192015 | 71 | 265 | 4.0 | 7.0 | 0.00 | 0.00 | 0.00 | 32 | 1006.6 |
| 20260504191000 | 71 | 281 | 4.0 | 8.0 | 0.00 | 0.00 | 0.00 | 31 | 1006.6 |
| 20260504190019 | 70 | 271 | 4.0 | 6.0 | 0.00 | 0.00 | 0.00 | 32 | 1006.8 |
| 20260504185024 | 71 | 278 | 5.0 | 7.0 | 0.00 | 0.00 | 0.00 | 32 | 1006.7 |
| 20260504184022 | 70 | 272 | 4.0 | 7.0 | 0.00 | 0.00 | 0.00 | 31 | 1007.0 |
| 20260504183027 | 71 | 265 | 5.0 | 8.0 | 0.00 | 0.00 | 0.00 | 31 | 1007.3 |
| 20260504182026 | 70 | 292 | 2.0 | 7.0 | 0.00 | 0.00 | 0.00 | 32 | 1007.0 |
| 20260504181032 | 70 | 264 | 4.0 | 7.0 | 0.00 | 0.00 | 0.00 | 31 | 1007.1 |